Regional Weather Roundup
Issued by NWS

Home | Current Version | Previous Version | Graphics & Text | Print | Product List | Glossary On
Versions: 1 2 3 4 5 6 7 8 9 10 11 12 13 14 15 16 17 18 19 20 21 22 23 24 25 26 27 28 29 30 31 32 33 34 35 36 37 38 39 40 41 42 43 44 45 46 47 48 49 50
529
ASUS43 KMPX 191610
RWRMN
WEATHER ROUNDUP FOR MINNESOTA
NATIONAL WEATHER SERVICE TWIN CITIES/CHANHASSEN MN
1000 AM CST SUN NOV 19 2017


NOTE: "FAIR" INDICATES FEW OR NO CLOUDS BELOW 12,000 FEET WITH NO
SIGNIFICANT WEATHER AND/OR OBSTRUCTIONS TO VISIBILITY. N/A MEANS
CURRENT SKY AND/OR WEATHER CONDITIONS ARE NOT AVAILABLE.

MNZ060>063-068>070-191700-
   Twin Cities Metro

CITY           SKY/WX    TMP DP  RH WIND       PRES   REMARKS
TWIN CITIES    PTSUNNY   23  13  65 SW8       30.07F WCI  14
ST PAUL        PTSUNNY   23  12  62 W5        30.08F WCI  17
CRYSTAL        MOSUNNY   24  12  60 SW6       30.05F WCI  17
BLAINE         MOSUNNY   27  16  63 SW5       30.05S WCI  21
LAKEVILLE      MOSUNNY   23  16  74 SW5       30.07S WCI  17
EDEN PRAIRIE   CLOUDY    23  14  68 SW6       30.05F WCI  16
SOUTH ST PAUL  MOSUNNY   24  13  61 SW8       30.07F WCI  16
LAKE ELMO      FAIR      25  14  63 SW8       30.07S WCI  16
$$
MNZ001>005-007-008-013>017-022>024-027-028-191700-
   Northwest Minnesota

CITY           SKY/WX    TMP DP  RH WIND       PRES   REMARKS
BEMIDJI        CLOUDY    17  10  74 S3        29.90F
HALLOCK        CLOUDY    18  14  86 S12       29.87F WCI   5
ROSEAU         CLOUDY    18  12  79 S3        29.88F
WARROAD        CLOUDY    16  10  79 SW6       29.89F WCI   7
THIEF RVR FALL CLOUDY    20  14  77 SE6       29.90F WCI  12
CROOKSTON      CLOUDY    21  16  79 S9        29.91S WCI  11
FOSSTON        MOSUNNY   19  12  73 S7        29.90F WCI  10
DETROIT LAKES  SUNNY     25  19  80 S7        29.91F WCI  17
MOORHEAD       SUNNY     23  18  80 S9        29.93F WCI  13
PARK RAPIDS    CLOUDY    20  15  81 SW6       29.92F WCI  12
MAHNOMEN       PTSUNNY   23  18  78 S12       29.89F WCI  12
$$
MNZ006-009>011-018-025>026-191700-
   North Central Minnesota

CITY           SKY/WX    TMP DP  RH WIND       PRES   REMARKS
BAUDETTE       FLURRIES  13   8  81 SW3       29.89F
FLAG ISLAND    CLOUDY    10   5  79 CALM      29.88F
INTL FALLS     CLOUDY    11   4  73 SW5       29.90S WCI   3
WASKISH        CLOUDY    18  12  79 SW6       29.90F WCI   9
BIG FORK       CLOUDY    16   9  73 SW5       29.92R WCI   9
LONGVILLE      CLOUDY    18  12  79 SW5       29.94S WCI  11
GRAND RAPIDS   PTSUNNY   16  10  77 S7        29.96R WCI   6
CRANE LAKE     PTSUNNY   10   5  79 CALM      29.93S
ORR            CLOUDY    10   5  79 CALM      29.88S
COOK           PTSUNNY   12   7  79 SW6       29.92R WCI   3
WALKER         CLOUDY    18  10  71 CALM      29.92F
$$
MNZ012-019>021-037-191700-
   Northeast Minnesota

CITY           SKY/WX    TMP DP  RH WIND       PRES   REMARKS
DULUTH         CLOUDY    14   9  80 W13       29.93F WCI   0
ELY            SUNNY     10   5  79 W9        29.89S WCI  -2
HIBBING        CLOUDY    13   9  84 SW6       29.92F WCI   4
EVELETH        MOSUNNY   12   5  73 SW6       29.93F WCI   3
DULUTH HARBOR  PTSUNNY   19  12  73 SW10      30.01S WCI   8
TWO HARBORS    SUNNY     21  10  63 SW8       29.92F WCI  12
SILVER BAY     MOSUNNY   14   7  73 SW3       29.91F
GRAND MARAIS     N/A     20   9  62 W7        29.92S WCI  11
G MARAIS ARPRT SUNNY     12   3  67 W6        29.82S WCI   3
$$
MNZ029>031-032-039>041-046>048-054>057-064-191700-
   West Central Minnesota

CITY           SKY/WX    TMP DP  RH WIND       PRES   REMARKS
FERGUS FALLS   SUNNY     25  19  80 S7        29.98F WCI  17
WHEATON        SUNNY     34  23  64 S8        29.97F WCI  27
MORRIS         SUNNY     28  21  74 S6        29.96F WCI  22
ALEXANDRIA     PTSUNNY   27  19  72 SW8       29.96F WCI  19
ELBOW LAKE     FAIR      26  21  81 S7        29.95F HAZE    WCI  18
WADENA         SUNNY     23  16  74 SW6       29.92F WCI  16
GLENWOOD       SUNNY     27  21  80 SW5       29.97F WCI  21
APPLETON       SUNNY     28  21  74 S3        29.98F
BENSON         CLOUDY    28  21  74 SW6       29.99F WCI  22
ORTONVILLE     SUNNY     32  23  69 MISG      29.97F
MADISON        SUNNY     37  27  65 SW7       29.98F
WILLMAR        FAIR      28  23  80 SW5       30.01F WCI  23
$$
MNZ033>034-036-042>043-049>051-058-059-191700-
   Central Minnesota

CITY           SKY/WX    TMP DP  RH WIND       PRES   REMARKS
ST CLOUD       SUNNY     23  16  74 S6        30.01F WCI  16
SAUK CENTRE    FAIR      24  18  77 S6        29.98F WCI  17
PAYNESVILLE    MOSUNNY   25  20  82 SW6       30.01S WCI  18
AITKIN         CLOUDY    18  10  73 SW8       29.95F WCI   7
PINE RIVER     CLOUDY    18  12  79 CALM      29.98F
BRAINERD       CLOUDY    23  12  62 SW10      29.97F WCI  12
STAPLES        PTSUNNY   21  16  79 S7        29.94F WCI  13
LONG PRAIRIE   FAIR      23  18  80 SE7       29.98F WCI  15
LITTLE FALLS   SUNNY     23  12  63 S5        29.99F WCI  17
LITCHFIELD     CLOUDY    27  21  80 SW6       30.02F WCI  20
BUFFALO        CLOUDY    23  16  72 S5        30.05F WCI  17
MAPLE LAKE     MOSUNNY   25  19  75 S3        30.04F
HUTCHINSON     CLOUDY    26  20  78 S6        30.04F WCI  20
$$
MNZ037-044-045-052-053-191700-
   East Central Minnesota

CITY           SKY/WX    TMP DP  RH WIND       PRES   REMARKS
PRINCETON      SUNNY     25  16  68 SW3       30.02F
MORA           MOSUNNY   21  14  73 SW5       30.03F WCI  15
CAMBRIDGE      SUNNY     25  14  63 SW6       30.04F WCI  18
RUSH CITY      SUNNY     22  13  68 SW6       30.03F WCI  15
MOOSE LAKE     CLOUDY    19  12  73 SW6       29.97F WCI  11
HINCKLEY       PTSUNNY   23  14  68 SW9       30.02S WCI  13
CLOQUET        CLOUDY    16   9  73 SW8       29.95F WCI   5
MCGREGOR       CLOUDY    19  14  79 SW6       29.98S WCI  11
$$
MNZ071>073-080-081-089-090-097-098-191700-
   Southwest Minnesota

CITY           SKY/WX    TMP DP  RH WIND       PRES   REMARKS
MONTEVIDEO     SUNNY     28  21  74 SW3       30.00F
GRANITE FALLS  CLOUDY    34  26  71 S6        30.03S WCI  29
CANBY          MOSUNNY   37  25  63 SW14G23   30.00S
MARSHALL       PTSUNNY   34  22  61 SW18      30.01S WCI  23
REDWOOD FALLS  CLOUDY    31  19  61 SW7       30.03F WCI  24
OLIVIA         CLOUDY    30  23  74 SW8       30.01F WCI  23
PIPESTONE      CLOUDY    28  21  74 SW7       30.03F WCI  21
WINDOM         MOSUNNY   30  16  55 SW12      30.05S WCI  21
WORTHINGTON    CLOUDY    32  20  61 SW16      30.05F WCI  21
JACKSON        CLOUDY    30  21  69 SW10      30.06F WCI  21
SLAYTON        MOSUNNY   33  21  62 SW20      30.03F WCI  21
$$
MNZ065>067-074>077-082>085-091>093-191700-
   South Central Minnesota

CITY           SKY/WX    TMP DP  RH WIND       PRES   REMARKS
MANKATO        MOSUNNY   24  17  74 S6        30.07F WCI  17
NEW ULM        MOSUNNY   28  19  69 CALM      30.05S
ST JAMES       MOSUNNY   30  19  64 SW9       30.06F WCI  22
FAIRMONT       PTSUNNY   30  20  66 SW12      30.07F WCI  20
GLENCOE        MOSUNNY   27  20  77 S6        30.04F WCI  20
FARIBAULT      MOSUNNY   25  16  68 S6        30.07F WCI  18
OWATONNA       MOSUNNY   25  16  68 SW7       30.07F WCI  17
WASECA         CLOUDY    25  19  80 SW7       30.09F WCI  17
ALBERT LEA     CLOUDY    25  16  68 SW6       30.08F WCI  18
$$
MNZ078>079-086>088-094>096-191700-
   Southeast Minnesota

CITY           SKY/WX    TMP DP  RH WIND       PRES   REMARKS
ROCHESTER      SUNNY     24  13  62 W9        30.08R WCI  14
RED WING       MOSUNNY   25   9  50 W5        30.08S WCI  19
STANTON        MOSUNNY   26  16  65 SW5       30.07S WCI  20
DODGE CENTER   MOSUNNY   23  14  68 SW10      30.07S WCI  12
WINONA           N/A     28  14  54 W5        30.11S WCI  23
AUSTIN         MOSUNNY   25  14  63 W6        30.09S WCI  18
PRESTON        SUNNY     23  10  58 W10       30.09R WCI  13
$$
ABBREVIATIONS USED IN REMARKS
   TC - TEMPERATURES IN CELSIUS
  WCI - WIND CHILL INDEX
   HX - HEAT INDEX
  VSB - VISIBILITY
$$




USA.gov is the U.S. government's official web portal to all federal, state and local government web resources and services.